Showing default

COSMOS 2490, 39485

Orbit data source: Space-Track

COSMOS 2490, 39485 is a payload satellite owned by VVKO (CIS) in LEO that was launched on Wed, 25 Dec 2013 UTC via an ROKOT launch vehicle from the Plesetsk Missile And Space Complex (PKMTR). Payload-class satellites include a variety of spacecraft equipped with specific instruments for various scientific and technological missions. These include communications satellites like Starlink; space stations such as the ISS; scientific satellites like the Hubble; Earth observation satellites from companies like Planet Labs, Umbra, and HawkEye 360; GPS; miniature CubeSats for education and research; and military/defense satellites.

Loading next visibility...
Identifier
39485, 2013-076C
Orbit
LEO
Country
Flag of CISCIS
Related business
Manufacturer
Resehetnev ISS
Mission
Operational Civil Communications
Bus & Motor
STRELA-3M, Unknown motor
Mass
280 kg wet, 280 kg dry
Launch date (UTC)
2013-12-25 (12 years ago)
Launch vehicle
ROKOT
Launch site
Plesetsk Missile And Space Complex (PKMTR)
Object type
Payload
Rocket body
Debris
Shape & HBR
Cyl + 1 Ant, 3.5 m
Radar Cross Section
1.583 m², Large (>1 m²)

Expand to show TLE details & history
Last TLE update: 5 hours ago

TLE from 5 hours ago
0 COSMOS 2490
1 39485U 13076C   26121.21567265  .00000085  00000-0  54347-3 0  9991
2 39485  82.4862 197.4075 0021043 210.4763 149.5095 12.42876323560043
Epoch: 2026-05-01T05:10Z
TLE epoch observation values (Epoch: 2026-05-01T05:10:34.116Z)
Latitude
-0.00005°
Longitude
-99.38578°
Altitude
1,511.42 km
Speed
7.103 km/s
True Right ascension
13h 09m 37s
True Declination
0° 00' 00"
Sunlit
Object was in full shadow at epoch
Visualization orbit readout
Latitude
Unknown
Longitude
Unknown
Altitude
Unknown
Speed
Unknown
Apparent Right ascension
Unknown
Apparent Declination
Unknown
Sunlit
N/A
Visualization observer readout
Local Sidereal Time
18:10:32
Azimuth
Unknown
Elevation
Unknown
Doppler factor
Unknown
Orbital elements
Apogee altitude
1,508.346 km
Perigee altitude
1,475.225 km
Semi-major axis
7,869.922 km
Eccentricity
0.0021
Inclination
82.4862°
RAAN
197.4075°
Arg. of periapsis
210.4763°
True anomaly
149.63157°
Mean anomaly
149.5095°
Eccentric anomaly
149.57056°
Mean motion
3.10876 °/min
Orbital period
115.8 mins
BSTAR
0.00054347
Loading maneuver chart data...
Computing Atmospheric mass density...
Loading historical data...
Loading historical data...
Loading historical data...
Loading historical data...
Loading historical data...
Loading historical data...
Loading historical data...

Documentation

Showing up to 5 results
|